星链-35381(STARLINK-35381)

导读

STARLINK-35381是美国SpaceX公司于2025年9月29日发射的星链(Starlink)第二代互联网卫星,属于星链星座扩容部署的卫星之一。它运行在低地球轨道,配备增强型相控阵天线与激光星间链路,依托氪离子推进系统实现轨道机动与自主避碰,可为全球偏远地区提供高速低延迟宽带互联网服务,是SpaceX构建全球卫星互联网网络的重要组成部分。

基本信息
目录编号:
65826
目录名称:
STARLINK-35381
国际标识:
2025-221D
轨道中心:
EARTH
卫星名称:
星链-35381
卫星全名:
星链-35381(STARLINK-35381)
卫星状态:
在轨 (已飞行257 天)
发射日期:
2025-09-29 UTC
国别 :
美国 (US)
星等 :
--
轨道信息
数据来源 国际轨道数据
星历时间: 2026-06-13T04:12:33+0800
16小时前
查看轨道信息
半长轴: 6840.796km
偏心率: 0.0000977
轨道倾角: 53.159°
近地点辐角 84.695°
升交点赤经 5.524°
平近点角 275.416°
近地点: 461.99km
远地点: 463.328km
周期: 93.847分钟
每日圈数: 15.34415
详细信息
固有亮度:
5
最大亮度:
2.5
卫星平台:
Starlink V1.0
覆盖范围:
全球
运营商:
太空探索技术公司
运营商所在国:
美国
制造商(研发单位):
太空探索技术公司
制造商所在国:
美国
使用方式:
暂无
卫星简介
Starlink 计划是 SpaceX 推出的全球卫星互联网项目,通过发射低轨道卫星,为全球尤其是偏远地区提供高速、低延迟的互联网服务。自 2019 年起,Starlink 已部署数千颗卫星,旨在缩小全球数字鸿沟,推动互联网普及。该项目还为军事、航空等行业提供通信支持,带来广泛经济效益。
2D轨道图
3D轨道图
轨道高度分析图
轨道倾角分析图
轨道综合分析图
查看轨道综合分析图